Location: Greenwich
(51.4790°N, 0.0090°E)
Time: 06:32:38
(UTC+01:00)

ISS - Visible Passes

Search period start: 16 July 2025 00:00
Search period end: 26 July 2025 00:00
Orbit: 413 x 417 km, 51.6° (Epoch: 16 July)

Date Brightness Start Highest point End Pass type
(mag) Time Alt. Az. Time Alt. Az. Time Alt. Az.
16 Jul -3.6 00:08:56 10° W 00:12:11 50° SSW 00:12:45 44° SSE visible
16 Jul -3.8 23:19:59 10° W 23:23:19 66° SSW 23:25:11 23° ESE visible
17 Jul -1.5 00:57:06 10° W 00:58:01 15° WSW 00:58:01 15° WSW visible
17 Jul -3.8 22:31:02 10° W 22:34:24 80° SSW 22:37:41 10° ESE visible
18 Jul -2.6 00:07:55 10° W 00:10:31 28° SW 00:10:31 28° SW visible
18 Jul -3.2 23:18:51 10° W 23:22:00 39° SSW 23:23:03 30° SSE visible
19 Jul -3.5 22:29:50 10° W 22:33:07 53° SSW 22:35:36 16° SE visible
20 Jul -1.5 00:07:18 10° WSW 00:08:26 14° WSW 00:08:26 14° WSW visible
20 Jul -2.2 23:17:52 10° W 23:20:30 21° SW 23:21:01 21° SSW visible
21 Jul -2.6 22:28:39 10° W 22:31:39 30° SSW 22:33:37 17° SSE visible
22 Jul -1.3 23:17:55 10° WSW 23:18:45 11° SW 23:19:06 11° SW visible
23 Jul -1.6 22:27:48 10° W 22:29:57 16° SW 22:31:46 11° S visible
24 Jul -2.1 21:38:21 10° W 21:41:05 23° SW 21:43:48 10° SSE visible
